Location: Northam
(31.6525°S, 116.6655°E)
Time: 02:10:13
(UTC+08:00)

Courier 1B - Visible Passes

Search period start: 19 June 2021 00:00
Search period end: 29 June 2021 00:00
Orbit: 962 x 1209 km, 28.3° (Epoch: 17 June)

Date Brightness Start Highest point End Pass type
(mag) Time Alt. Az. Time Alt. Az. Time Alt. Az.
19 Jun 8.0 04:36:51 53° N 04:36:51 53° N 04:43:20 10° ENE visible
19 Jun 9.1 06:24:25 10° W 06:30:07 27° NNW 06:36:05 10° NNE visible
20 Jun 9.3 03:46:30 27° ENE 03:46:30 27° ENE 03:49:30 10° ENE visible
20 Jun 8.7 05:33:24 23° WNW 05:36:24 33° NNW 05:42:43 10° NE visible
21 Jun 8.4 04:43:04 39° NNW 04:43:04 39° NNW 04:49:11 10° NE visible
21 Jun 9.6 06:32:16 10° WNW 06:36:16 16° NNW 06:40:24 10° N visible
22 Jun 9.3 03:52:44 24° NE 03:52:44 24° NE 03:55:34 10° NE visible
22 Jun 9.2 05:39:38 16° WNW 05:42:35 21° NNW 05:47:40 10° NNE visible
23 Jun 8.9 04:49:20 26° NNW 04:49:20 26° NNW 04:54:33 10° NNE visible
23 Jun 9.9 20:16:49 10° N 20:17:05 11° N 20:17:05 11° N visible
24 Jun 9.5 03:59:03 19° NNE 03:59:03 19° NNE 04:01:16 10° NE visible
24 Jun 9.6 05:46:47 10° NW 05:48:45 11° NNW 05:50:43 10° NNW visible
24 Jun 9.7 19:25:11 10° NNE 19:26:48 11° NNE 19:26:48 11° NNE visible
25 Jun 9.4 04:55:40 16° NNW 04:55:40 16° NNW 04:58:57 10° N visible
25 Jun 9.5 20:21:12 10° NNW 20:23:25 18° NNW 20:23:25 18° NNW visible
26 Jun 9.8 04:05:23 13° NNE 04:05:23 13° NNE 04:06:18 10° NNE visible
26 Jun 9.1 19:28:08 10° NNW 19:33:07 21° NNE 19:33:09 21° NNE visible
27 Jun 9.5 18:35:26 10° N 18:39:27 16° NNE 18:42:51 11° ENE visible
27 Jun 9.3 20:26:34 10° NW 20:29:45 25° NNW 20:29:45 25° NNW visible
28 Jun 9.8 17:43:39 10° NNE 17:45:45 11° NNE 17:47:50 10° NE visible
28 Jun 8.6 19:33:04 10° NW 19:39:18 32° NNE 19:39:27 32° NNE visible
28 Jun 10.3 21:26:15 10° WNW 21:26:21 10° WNW 21:26:21 10° WNW visible
